User: anonymous   Login
Location: Donald C. Martin Observatory
(38.3885°N, 82.3916°W)
Time: 18:39:22
(UTC-04:00)
Language:

Cosmos 1484 Rocket - Orbit

View from above orbital plane
View from above orbital plane
View from above satellite
View from above satellite

Ground track
Ground track

The orbit data is extracted from the following two-line orbital elements,

1 14208U 83075B   16243.30108094  .00000469  00000-0  32086-4 0  9991
2 14208  97.3530 259.7183 0041155  55.9929 304.5199 15.10041569803604
Epoch (UTC): 30 August 2016 07:13:33
Eccentricity: 0.0041155
inclination: 97.3530°
perigee height: 507 km
apogee height: 564 km
right ascension of ascending node: 259.7183°
argument of perigee: 55.9929°
revolutions per day: 15.10041569
mean anomaly at epoch: 304.5199°
orbit number at epoch: 80360

The dashed part of the orbit path shows where the satellite is in the earth's shadow,  

DLR